DAL642 MMMX-KSLC

Flight info

Callsign DAL642
Flight time 4h 2m
Altitude 34000
Route AXIRI2A AXIRI UT138 CVM/N0465F350 UJ41 TALBI/N0463F360 UJ41 NLD DCT DLF DCT INK J15 CNX DCT RSK DCT RIFMN DCT HELPR JAZZZ1
Aircraft A319/M-SDE3FGHIRWY/LB1

Departure

Time 2026-05-04 02:51
Airport Mexico City Benito Juárez International Airport (MMMX)

Arrival

Time 2026-05-04 06:54
Airport Salt Lake City International Airport (KSLC)
Time Latitude Longitude Altitude Speed Heading
2026-05-04 02:33 19.43223 -99.08582 7303 ft 0 kts
2026-05-04 02:43 19.43208 -99.08582 7303 ft 3 kts
2026-05-04 02:44 19.43191 -99.08582 7303 ft 3 kts
2026-05-04 02:44 19.43173 -99.08582 7303 ft 3 kts
2026-05-04 02:44 19.43157 -99.08577 7303 ft 2 kts 284°
2026-05-04 02:44 19.43156 -99.08572 7303 ft 0 kts 269°
2026-05-04 02:47 19.43156 -99.08573 7303 ft 1 kts 266°
2026-05-04 02:47 19.43143 -99.08603 7304 ft 5 kts 239°
2026-05-04 02:47 19.43114 -99.08654 7303 ft 12 kts 239°
2026-05-04 02:47 19.43054 -99.08759 7303 ft 21 kts 238°
2026-05-04 02:48 19.42970 -99.08909 7303 ft 22 kts 239°
2026-05-04 02:48 19.42914 -99.09007 7303 ft 12 kts 232°
2026-05-04 02:48 19.42859 -99.09047 7303 ft 8 kts 206°
2026-05-04 02:48 19.42819 -99.09068 7303 ft 5 kts 206°
2026-05-04 02:49 19.42799 -99.09079 7303 ft 2 kts 206°
2026-05-04 02:49 19.42786 -99.09085 7303 ft 2 kts 205°
2026-05-04 02:49 19.42783 -99.09087 7303 ft 0 kts 205°
2026-05-04 02:49 19.42750 -99.09097 7303 ft 9 kts 185°
2026-05-04 02:50 19.42705 -99.09042 7303 ft 13 kts 60°
2026-05-04 02:50 19.42741 -99.09037 7303 ft 3 kts 341°
2026-05-04 02:50 19.42765 -99.09033 7303 ft 8 kts 29°
2026-05-04 02:50 19.42805 -99.08968 7303 ft 33 kts 58°
2026-05-04 02:51 19.43031 -99.08561 7301 ft 94 kts 59°
2026-05-04 02:51 19.43473 -99.07777 7304 ft 153 kts 59°
2026-05-04 02:51 19.44100 -99.06657 7368 ft 193 kts 60°
2026-05-04 02:51 19.44761 -99.05459 8139 ft 188 kts 59°
2026-05-04 02:52 19.45422 -99.04277 9070 ft 185 kts 58°
2026-05-04 02:52 19.46100 -99.03051 9424 ft 203 kts 58°
2026-05-04 02:52 19.46847 -99.01715 9566 ft 218 kts 59°
2026-05-04 02:52 19.47661 -99.00268 9597 ft 243 kts 59°
2026-05-04 02:53 19.48588 -98.98634 9593 ft 272 kts 58°
2026-05-04 02:53 19.49593 -98.96852 9754 ft 290 kts 60°
2026-05-04 02:53 19.50640 -98.94981 10166 ft 300 kts 60°
2026-05-04 02:53 19.51746 -98.93016 10324 ft 321 kts 60°
2026-05-04 02:54 19.52920 -98.90923 10440 ft 340 kts 59°
2026-05-04 02:54 19.54340 -98.88823 10593 ft 357 kts 51°
2026-05-04 02:54 19.55985 -98.86820 11017 ft 364 kts 47°
2026-05-04 02:54 19.57736 -98.84865 11516 ft 366 kts 46°
2026-05-04 02:55 19.61334 -98.80989 12553 ft 372 kts 45°
2026-05-04 02:55 19.63132 -98.79005 13112 ft 374 kts 45°
2026-05-04 02:55 19.64904 -98.76981 13669 ft 375 kts 46°
2026-05-04 02:56 19.66661 -98.74931 14221 ft 377 kts 46°
2026-05-04 02:56 19.68422 -98.72850 14661 ft 380 kts 46°
2026-05-04 02:56 19.70264 -98.70831 15196 ft 382 kts 37°
2026-05-04 02:56 19.72613 -98.69563 15622 ft 381 kts 14°
2026-05-04 02:57 19.75226 -98.69065 16075 ft 383 kts
2026-05-04 02:57 19.77890 -98.68932 16542 ft 385 kts 359°
2026-05-04 02:57 19.80575 -98.68965 16994 ft 387 kts 358°
2026-05-04 02:57 19.83275 -98.69032 17426 ft 390 kts 358°
2026-05-04 02:58 19.85999 -98.69022 17918 ft 393 kts
2026-05-04 02:58 19.88744 -98.68915 18371 ft 396 kts
2026-05-04 02:58 19.91504 -98.68731 18771 ft 399 kts
2026-05-04 02:58 19.94277 -98.68710 19191 ft 399 kts 353°
2026-05-04 02:59 19.96997 -98.69243 19602 ft 398 kts 342°
2026-05-04 02:59 19.99552 -98.70365 20029 ft 398 kts 330°
2026-05-04 02:59 20.01861 -98.71995 20441 ft 400 kts 323°
2026-05-04 02:59 20.04107 -98.73752 20827 ft 402 kts 323°
2026-05-04 03:00 20.06368 -98.75516 21212 ft 404 kts 323°
2026-05-04 03:00 20.08640 -98.77281 21588 ft 406 kts 323°
2026-05-04 03:00 20.10929 -98.79054 21954 ft 408 kts 324°
2026-05-04 03:00 20.13228 -98.80829 22312 ft 410 kts 324°
2026-05-04 03:01 20.15537 -98.82609 22668 ft 411 kts 324°
2026-05-04 03:01 20.17857 -98.84409 23008 ft 413 kts 324°
2026-05-04 03:01 20.20175 -98.86224 23349 ft 415 kts 323°
2026-05-04 03:01 20.22503 -98.88056 23682 ft 417 kts 323°
2026-05-04 03:02 20.24830 -98.89911 23967 ft 418 kts 322°
2026-05-04 03:02 20.27104 -98.91851 24251 ft 420 kts 320°
2026-05-04 03:02 20.29308 -98.93837 24516 ft 421 kts 319°
2026-05-04 03:02 20.31523 -98.95883 24783 ft 422 kts 319°
2026-05-04 03:03 20.33740 -98.97949 25058 ft 424 kts 319°
2026-05-04 03:03 20.35963 -99.00011 25327 ft 425 kts 319°
2026-05-04 03:03 20.38208 -99.02072 25602 ft 426 kts 320°
2026-05-04 03:03 20.40514 -99.04063 25862 ft 428 kts 326°
2026-05-04 03:04 20.43115 -99.05608 26114 ft 429 kts 336°
2026-05-04 03:04 20.45955 -99.06595 26377 ft 432 kts 347°
2026-05-04 03:04 20.48945 -99.06994 26639 ft 435 kts 357°
2026-05-04 03:04 20.51973 -99.06884 26904 ft 437 kts
2026-05-04 03:05 20.55015 -99.06719 27156 ft 438 kts
2026-05-04 03:05 20.58068 -99.06559 27421 ft 439 kts
2026-05-04 03:05 20.61122 -99.06404 27712 ft 440 kts
2026-05-04 03:05 20.64183 -99.06250 27972 ft 441 kts
2026-05-04 03:06 20.67247 -99.06097 28213 ft 442 kts
2026-05-04 03:06 20.70325 -99.05944 28446 ft 443 kts
2026-05-04 03:06 20.73408 -99.05792 28666 ft 444 kts
2026-05-04 03:06 20.76504 -99.05640 28902 ft 446 kts
2026-05-04 03:07 20.79608 -99.05487 29130 ft 447 kts
2026-05-04 03:07 20.82718 -99.05332 29335 ft 449 kts
2026-05-04 03:07 20.85840 -99.05171 29559 ft 450 kts
2026-05-04 03:07 20.88973 -99.05007 29773 ft 451 kts
2026-05-04 03:08 20.92114 -99.04842 30034 ft 452 kts
2026-05-04 03:08 20.95252 -99.04678 30348 ft 451 kts
2026-05-04 03:08 20.98377 -99.04516 30612 ft 450 kts
2026-05-04 03:08 21.01497 -99.04354 30872 ft 449 kts 360°
2026-05-04 03:09 21.04619 -99.04194 31122 ft 448 kts 360°
2026-05-04 03:09 21.07732 -99.04036 31372 ft 448 kts 360°
2026-05-04 03:09 21.10887 -99.03878 31619 ft 448 kts 360°
2026-05-04 03:09 21.13959 -99.03721 31860 ft 447 kts 360°
2026-05-04 03:10 21.17066 -99.03559 32085 ft 447 kts 360°
2026-05-04 03:10 21.20173 -99.03399 32325 ft 447 kts 359°
2026-05-04 03:10 21.23283 -99.03241 32565 ft 447 kts 359°
2026-05-04 03:10 21.26387 -99.03086 32792 ft 447 kts 359°
2026-05-04 03:11 21.29493 -99.02929 33047 ft 446 kts 359°
2026-05-04 03:11 21.32595 -99.02769 33234 ft 447 kts 359°
2026-05-04 03:11 21.35696 -99.02609 33503 ft 446 kts 359°
2026-05-04 03:11 21.38795 -99.02448 33734 ft 446 kts 359°
2026-05-04 03:12 21.41933 -99.02287 34005 ft 445 kts 359°
2026-05-04 03:12 21.44990 -99.02130 34144 ft 445 kts 359°
2026-05-04 03:12 21.48082 -99.01971 34167 ft 444 kts 359°
2026-05-04 03:13 21.54246 -99.01652 34168 ft 443 kts 359°
2026-05-04 03:13 21.60428 -99.01337 34156 ft 441 kts 359°
2026-05-04 03:14 21.66560 -99.01024 34159 ft 441 kts 359°
2026-05-04 03:14 21.72647 -99.00710 34148 ft 441 kts 359°
2026-05-04 03:15 21.78819 -99.00391 34152 ft 441 kts 359°
2026-05-04 03:15 21.84908 -99.00076 34142 ft 441 kts 359°
2026-05-04 03:16 21.91080 -98.99759 34165 ft 441 kts 358°
2026-05-04 03:16 21.97199 -98.99438 34164 ft 440 kts 359°
2026-05-04 03:17 22.03261 -98.99117 34159 ft 439 kts 358°
2026-05-04 03:17 22.09353 -98.98809 34155 ft 438 kts 358°
2026-05-04 03:18 22.14451 -98.98553 34154 ft 437 kts 358°
2026-05-04 03:18 22.20531 -98.98234 34151 ft 437 kts 358°
2026-05-04 03:19 22.26601 -98.97912 34162 ft 436 kts 358°
2026-05-04 03:19 22.32656 -98.97594 34162 ft 435 kts 358°
2026-05-04 03:20 22.38701 -98.97288 34162 ft 435 kts 358°
2026-05-04 03:20 22.44742 -98.96976 34157 ft 434 kts 358°
2026-05-04 03:21 22.50772 -98.96660 34149 ft 434 kts 358°
2026-05-04 03:21 22.56795 -98.96349 34166 ft 433 kts 358°
2026-05-04 03:22 22.62801 -98.96032 34159 ft 431 kts 358°
2026-05-04 03:22 22.68787 -98.95716 34154 ft 430 kts 358°
2026-05-04 03:23 22.74769 -98.95402 34145 ft 430 kts 358°
2026-05-04 03:23 22.80744 -98.95086 34144 ft 430 kts 358°
2026-05-04 03:24 22.86724 -98.94774 34160 ft 430 kts 357°
2026-05-04 03:24 22.92696 -98.94464 34159 ft 429 kts 357°
2026-05-04 03:25 22.98654 -98.94161 34162 ft 428 kts 357°
2026-05-04 03:25 23.04601 -98.93846 34152 ft 428 kts 358°
2026-05-04 03:26 23.10542 -98.93532 34143 ft 427 kts 357°
2026-05-04 03:26 23.16477 -98.93226 34145 ft 427 kts 357°
2026-05-04 03:27 23.22410 -98.92906 34149 ft 427 kts 357°
2026-05-04 03:27 23.28346 -98.92588 34143 ft 427 kts 357°
2026-05-04 03:28 23.34255 -98.92565 34147 ft 421 kts 350°
2026-05-04 03:28 23.40102 -98.93115 34131 ft 421 kts 350°
2026-05-04 03:29 23.45949 -98.93652 34120 ft 422 kts 350°
2026-05-04 03:29 23.51796 -98.94188 34127 ft 422 kts 350°
2026-05-04 03:30 23.57649 -98.94721 34115 ft 422 kts 350°
2026-05-04 03:30 23.63507 -98.95250 34105 ft 423 kts 350°
2026-05-04 03:31 23.69374 -98.95784 34106 ft 423 kts 350°
2026-05-04 03:31 23.75209 -98.96491 34109 ft 421 kts 347°
2026-05-04 03:32 23.81003 -98.97466 34133 ft 421 kts 346°
2026-05-04 03:32 23.86787 -98.98459 34134 ft 421 kts 346°
2026-05-04 03:33 23.92582 -98.99394 34138 ft 421 kts 347°
2026-05-04 03:33 23.98377 -99.00298 34131 ft 420 kts 347°
2026-05-04 03:34 24.04123 -99.01197 34129 ft 420 kts 347°
2026-05-04 03:34 24.09944 -99.02111 34130 ft 420 kts 347°
2026-05-04 03:35 24.15726 -99.03025 34131 ft 420 kts 346°
2026-05-04 03:35 24.21469 -99.03941 34119 ft 420 kts 346°
2026-05-04 03:36 24.27289 -99.04867 34116 ft 420 kts 346°
2026-05-04 03:36 24.33036 -99.05778 34111 ft 420 kts 346°
2026-05-04 03:37 24.38818 -99.06694 34108 ft 420 kts 346°
2026-05-04 03:37 24.44601 -99.07618 34106 ft 420 kts 346°
2026-05-04 03:38 24.50380 -99.08537 34107 ft 420 kts 346°
2026-05-04 03:38 24.56160 -99.09457 34078 ft 419 kts 347°
2026-05-04 03:39 24.61942 -99.10378 34084 ft 420 kts 346°
2026-05-04 03:39 24.67732 -99.11301 34087 ft 420 kts 346°
2026-05-04 03:40 24.73522 -99.12229 34105 ft 421 kts 346°
2026-05-04 03:40 24.79326 -99.13159 34088 ft 422 kts 346°
2026-05-04 03:41 24.84461 -99.13979 34080 ft 423 kts 346°
2026-05-04 03:41 24.90291 -99.14904 34078 ft 424 kts 346°
2026-05-04 03:42 24.96125 -99.15838 34081 ft 424 kts 346°
2026-05-04 03:42 25.01971 -99.16779 34080 ft 425 kts 346°
2026-05-04 03:43 25.07820 -99.17716 34105 ft 425 kts 346°
2026-05-04 03:43 25.13671 -99.18655 34091 ft 425 kts 346°
2026-05-04 03:44 25.19522 -99.19602 34090 ft 425 kts 346°
2026-05-04 03:44 25.25378 -99.20551 34091 ft 425 kts 346°
2026-05-04 03:45 25.31234 -99.21501 34090 ft 425 kts 346°
2026-05-04 03:45 25.37095 -99.22447 34106 ft 425 kts 346°
2026-05-04 03:46 25.42954 -99.23389 34092 ft 426 kts 346°
2026-05-04 03:46 25.48826 -99.24334 34086 ft 426 kts 346°
2026-05-04 03:47 25.54692 -99.25287 34087 ft 426 kts 346°
2026-05-04 03:47 25.60563 -99.26239 34086 ft 426 kts 346°
2026-05-04 03:48 25.66438 -99.27188 34102 ft 427 kts 346°
2026-05-04 03:48 25.72312 -99.28143 34098 ft 426 kts 346°
2026-05-04 03:49 25.78183 -99.29098 34098 ft 426 kts 346°
2026-05-04 03:49 25.84048 -99.30053 34093 ft 426 kts 346°
2026-05-04 03:50 25.89908 -99.31011 34087 ft 426 kts 346°
2026-05-04 03:50 25.95770 -99.31965 34091 ft 426 kts 346°
2026-05-04 03:51 26.01632 -99.32918 34106 ft 426 kts 345°
2026-05-04 03:51 26.07489 -99.33879 34103 ft 425 kts 345°
2026-05-04 03:52 26.13342 -99.34840 34097 ft 425 kts 346°
2026-05-04 03:52 26.19191 -99.35794 34096 ft 425 kts 346°
2026-05-04 03:53 26.25040 -99.36747 34093 ft 424 kts 345°
2026-05-04 03:53 26.30870 -99.37705 34117 ft 423 kts 345°
2026-05-04 03:54 26.36678 -99.38662 34106 ft 421 kts 345°
2026-05-04 03:54 26.42473 -99.39616 34103 ft 420 kts 345°
2026-05-04 03:55 26.48254 -99.40568 34098 ft 420 kts 345°
2026-05-04 03:55 26.54034 -99.41521 34091 ft 420 kts 345°
2026-05-04 03:56 26.59770 -99.42466 34115 ft 420 kts 345°
2026-05-04 03:56 26.65544 -99.43423 34109 ft 419 kts 345°
2026-05-04 03:57 26.71350 -99.44385 34099 ft 418 kts 345°
2026-05-04 03:57 26.77107 -99.45333 34081 ft 418 kts 345°
2026-05-04 03:58 26.85738 -99.46755 34107 ft 417 kts 345°
2026-05-04 03:58 26.91477 -99.47703 34109 ft 416 kts 345°
2026-05-04 03:59 26.96232 -99.48495 34099 ft 415 kts 345°
2026-05-04 03:59 27.01946 -99.49451 34098 ft 415 kts 345°
2026-05-04 04:00 27.07661 -99.50398 34098 ft 415 kts 345°
2026-05-04 04:00 27.13377 -99.51349 34102 ft 415 kts 345°
2026-05-04 04:01 27.19086 -99.52304 34110 ft 415 kts 345°
2026-05-04 04:01 27.24794 -99.53249 34107 ft 415 kts 345°
2026-05-04 04:02 27.30503 -99.54203 34100 ft 415 kts 345°
2026-05-04 04:02 27.36209 -99.55163 34096 ft 415 kts 345°
2026-05-04 04:03 27.41912 -99.56147 34093 ft 412 kts 341°
2026-05-04 04:03 27.47136 -99.58423 34090 ft 399 kts 326°
2026-05-04 04:04 27.51969 -99.61431 34090 ft 400 kts 326°
2026-05-04 04:04 27.56856 -99.64434 34089 ft 400 kts 327°
2026-05-04 04:05 27.61777 -99.67455 34091 ft 400 kts 327°
2026-05-04 04:05 27.66539 -99.70391 34100 ft 400 kts 326°
2026-05-04 04:06 27.71421 -99.73413 34094 ft 400 kts 326°
2026-05-04 04:06 27.76302 -99.76440 34111 ft 400 kts 326°
2026-05-04 04:07 27.81179 -99.79464 34100 ft 400 kts 326°
2026-05-04 04:07 27.86053 -99.82486 34091 ft 400 kts 326°
2026-05-04 04:08 27.90897 -99.85491 34074 ft 400 kts 326°
2026-05-04 04:08 27.95772 -99.88524 34064 ft 400 kts 326°
2026-05-04 04:09 28.00650 -99.91564 34064 ft 400 kts 326°
2026-05-04 04:09 28.05528 -99.94605 34082 ft 400 kts 326°
2026-05-04 04:10 28.10408 -99.97648 34076 ft 400 kts 326°
2026-05-04 04:10 28.15286 -100.00690 34068 ft 400 kts 326°
2026-05-04 04:11 28.20171 -100.03731 34058 ft 400 kts 326°
2026-05-04 04:11 28.25049 -100.06781 34058 ft 401 kts 326°
2026-05-04 04:12 28.29926 -100.09845 34098 ft 400 kts 325°
2026-05-04 04:12 28.34796 -100.12905 34090 ft 400 kts 325°
2026-05-04 04:13 28.39661 -100.15959 34086 ft 399 kts 325°
2026-05-04 04:13 28.44522 -100.19013 34079 ft 399 kts 325°
2026-05-04 04:14 28.49377 -100.22061 34070 ft 399 kts 325°
2026-05-04 04:14 28.54226 -100.25114 34067 ft 398 kts 325°
2026-05-04 04:15 28.59067 -100.28169 34090 ft 397 kts 324°
2026-05-04 04:15 28.63891 -100.31214 34079 ft 396 kts 324°
2026-05-04 04:16 28.68696 -100.34250 34078 ft 395 kts 324°
2026-05-04 04:16 28.73491 -100.37281 34069 ft 394 kts 324°
2026-05-04 04:17 28.78282 -100.40312 34065 ft 394 kts 324°
2026-05-04 04:17 28.83065 -100.43346 34063 ft 394 kts 324°
2026-05-04 04:18 28.87844 -100.46380 34082 ft 392 kts 324°
2026-05-04 04:18 28.92605 -100.49405 34075 ft 391 kts 324°
2026-05-04 04:19 28.97351 -100.52421 34072 ft 390 kts 324°
2026-05-04 04:19 29.02083 -100.55430 34063 ft 389 kts 324°
2026-05-04 04:20 29.06816 -100.58444 34054 ft 389 kts 324°
2026-05-04 04:20 29.11550 -100.61465 34044 ft 390 kts 324°
2026-05-04 04:21 29.16289 -100.64488 34073 ft 390 kts 324°
2026-05-04 04:21 29.21015 -100.67513 34067 ft 389 kts 324°
2026-05-04 04:22 29.25737 -100.70534 34065 ft 389 kts 324°
2026-05-04 04:22 29.30458 -100.73552 34064 ft 389 kts 324°
2026-05-04 04:23 29.35175 -100.76578 34061 ft 387 kts 323°
2026-05-04 04:23 29.39383 -100.80288 34090 ft 381 kts 315°
2026-05-04 04:24 29.43456 -100.84171 34079 ft 380 kts 315°
2026-05-04 04:24 29.47526 -100.88049 34095 ft 380 kts 315°
2026-05-04 04:25 29.51594 -100.91923 34083 ft 380 kts 315°
2026-05-04 04:25 29.55660 -100.95797 34046 ft 380 kts 315°
2026-05-04 04:26 29.59715 -100.99673 34041 ft 379 kts 315°
2026-05-04 04:26 29.63768 -101.03551 34032 ft 379 kts 315°
2026-05-04 04:27 29.67824 -101.07426 34044 ft 379 kts 314°
2026-05-04 04:27 29.71870 -101.11310 34014 ft 379 kts 314°
2026-05-04 04:28 29.75917 -101.15201 34022 ft 379 kts 314°
2026-05-04 04:28 29.79966 -101.19095 34006 ft 379 kts 314°
2026-05-04 04:29 29.84022 -101.22983 34010 ft 380 kts 314°
2026-05-04 04:29 29.88077 -101.26884 34017 ft 380 kts 314°
2026-05-04 04:30 29.92128 -101.30794 34037 ft 380 kts 314°
2026-05-04 04:30 29.96182 -101.34703 34031 ft 380 kts 314°
2026-05-04 04:31 30.00233 -101.38611 34029 ft 380 kts 314°
2026-05-04 04:31 30.04282 -101.42525 34028 ft 380 kts 314°
2026-05-04 04:32 30.08330 -101.46446 34019 ft 380 kts 314°
2026-05-04 04:32 30.12375 -101.50365 34023 ft 379 kts 314°
2026-05-04 04:33 30.16417 -101.54285 34018 ft 379 kts 314°
2026-05-04 04:33 30.20456 -101.58211 34021 ft 379 kts 314°
2026-05-04 04:34 30.24489 -101.62138 34017 ft 379 kts 314°
2026-05-04 04:34 30.28521 -101.66064 34016 ft 379 kts 314°
2026-05-04 04:35 30.32553 -101.69984 34000 ft 378 kts 314°
2026-05-04 04:35 30.36582 -101.73908 34007 ft 379 kts 314°
2026-05-04 04:36 30.40609 -101.77840 34005 ft 379 kts 314°
2026-05-04 04:36 30.44640 -101.81782 34006 ft 380 kts 314°
2026-05-04 04:37 30.52766 -101.89745 33987 ft 384 kts 314°
2026-05-04 04:38 30.56858 -101.93757 33990 ft 386 kts 314°
2026-05-04 04:38 30.60960 -101.97778 33992 ft 386 kts 314°
2026-05-04 04:39 30.65063 -102.01809 33994 ft 387 kts 314°
2026-05-04 04:39 30.69140 -102.05825 34024 ft 387 kts 314°
2026-05-04 04:40 30.73263 -102.09898 34014 ft 386 kts 314°
2026-05-04 04:40 30.77327 -102.13913 34009 ft 386 kts 314°
2026-05-04 04:41 30.80755 -102.17299 34008 ft 386 kts 314°
2026-05-04 04:41 30.85515 -102.21993 33993 ft 386 kts 314°
2026-05-04 04:42 30.89602 -102.26041 33988 ft 386 kts 314°
2026-05-04 04:42 30.93031 -102.29434 33988 ft 386 kts 314°
2026-05-04 04:43 30.97120 -102.33492 33986 ft 386 kts 313°
2026-05-04 04:43 31.01210 -102.37560 33976 ft 387 kts 313°
2026-05-04 04:44 31.05311 -102.41634 33957 ft 387 kts 314°
2026-05-04 04:44 31.09410 -102.45713 33958 ft 388 kts 313°
2026-05-04 04:45 31.13509 -102.49807 33945 ft 388 kts 313°
2026-05-04 04:47 31.27817 -102.64092 33957 ft 386 kts 313°
2026-05-04 04:47 31.31889 -102.68174 33961 ft 385 kts 312°
2026-05-04 04:48 31.35957 -102.72261 33957 ft 385 kts 313°
2026-05-04 04:49 31.46111 -102.82462 33955 ft 384 kts 312°
2026-05-04 04:49 31.50152 -102.86533 33957 ft 383 kts 312°
2026-05-04 04:50 31.54175 -102.90603 33962 ft 382 kts 311°
2026-05-04 04:50 31.58192 -102.94671 33951 ft 381 kts 312°
2026-05-04 04:51 31.62214 -102.98727 33942 ft 381 kts 312°
2026-05-04 04:51 31.66229 -103.02779 33944 ft 381 kts 311°
2026-05-04 04:52 31.70237 -103.06838 33968 ft 380 kts 312°
2026-05-04 04:52 31.74241 -103.10902 33966 ft 380 kts 312°
2026-05-04 04:53 31.78236 -103.14968 33940 ft 379 kts 313°
2026-05-04 04:53 31.82224 -103.19023 33954 ft 379 kts 313°
2026-05-04 04:54 31.86201 -103.23075 33949 ft 378 kts 313°
2026-05-04 04:54 31.90228 -103.27054 33949 ft 379 kts 315°
2026-05-04 04:55 31.94400 -103.30856 33958 ft 378 kts 316°
2026-05-04 04:55 31.98566 -103.34623 33942 ft 377 kts 315°
2026-05-04 04:56 32.02705 -103.38422 33931 ft 377 kts 315°
2026-05-04 04:56 32.06830 -103.42250 33928 ft 378 kts 315°
2026-05-04 04:57 32.10960 -103.46089 33929 ft 378 kts 315°
2026-05-04 04:57 32.15093 -103.49926 33916 ft 378 kts 315°
2026-05-04 04:58 32.19215 -103.53762 33954 ft 377 kts 315°
2026-05-04 04:58 32.23327 -103.57591 33954 ft 376 kts 315°
2026-05-04 04:59 32.27426 -103.61411 33950 ft 375 kts 315°
2026-05-04 04:59 32.31519 -103.65229 33943 ft 375 kts 315°
2026-05-04 05:00 32.35613 -103.69051 33942 ft 374 kts 315°
2026-05-04 05:01 32.41730 -103.74779 33952 ft 375 kts 315°
2026-05-04 05:01 32.45811 -103.78602 33932 ft 374 kts 315°
2026-05-04 05:02 32.49896 -103.82431 33926 ft 374 kts 315°
2026-05-04 05:02 32.53981 -103.86263 33913 ft 374 kts 315°
2026-05-04 05:03 32.58056 -103.90093 33917 ft 373 kts 315°
2026-05-04 05:04 32.66171 -103.97752 33918 ft 372 kts 315°
2026-05-04 05:04 32.70224 -104.01573 33917 ft 372 kts 315°
2026-05-04 05:06 32.86402 -104.16881 33963 ft 371 kts 315°
2026-05-04 05:07 32.90440 -104.20712 34002 ft 371 kts 315°
2026-05-04 05:07 32.94474 -104.24547 34003 ft 371 kts 314°
2026-05-04 05:09 33.12555 -104.41789 34003 ft 370 kts 314°
2026-05-04 05:10 33.16570 -104.45628 34013 ft 370 kts 314°
2026-05-04 05:10 33.20581 -104.49474 34030 ft 370 kts 314°
2026-05-04 05:11 33.24593 -104.53327 34033 ft 370 kts 314°
2026-05-04 05:11 33.28606 -104.57182 34030 ft 370 kts 314°
2026-05-04 05:12 33.32619 -104.61036 34025 ft 370 kts 314°
2026-05-04 05:12 33.36602 -104.64934 34044 ft 370 kts 313°
2026-05-04 05:13 33.40515 -104.68919 34007 ft 369 kts 313°
2026-05-04 05:13 33.44425 -104.72915 33978 ft 370 kts 313°
2026-05-04 05:14 33.48324 -104.76877 33952 ft 370 kts 313°
2026-05-04 05:14 33.52252 -104.80861 33928 ft 370 kts 313°
2026-05-04 05:15 33.56203 -104.84877 33915 ft 370 kts 313°
2026-05-04 05:15 33.60127 -104.88872 33930 ft 370 kts 313°
2026-05-04 05:16 33.64029 -104.92840 33928 ft 370 kts 312°
2026-05-04 05:16 33.67957 -104.96846 33924 ft 370 kts 312°
2026-05-04 05:17 33.71882 -105.00856 33925 ft 370 kts 312°
2026-05-04 05:17 33.75806 -105.04871 33921 ft 371 kts 312°
2026-05-04 05:18 33.79727 -105.08894 33937 ft 371 kts 312°
2026-05-04 05:18 33.83652 -105.12918 33954 ft 371 kts 312°
2026-05-04 05:19 33.87582 -105.16949 33950 ft 371 kts 312°
2026-05-04 05:19 33.91511 -105.20988 33946 ft 372 kts 312°
2026-05-04 05:20 33.95444 -105.25033 33959 ft 372 kts 312°
2026-05-04 05:20 33.99377 -105.29080 33939 ft 372 kts 312°
2026-05-04 05:21 34.03309 -105.33137 33962 ft 372 kts 312°
2026-05-04 05:21 34.07243 -105.37204 33976 ft 373 kts 312°
2026-05-04 05:22 34.11177 -105.41276 33974 ft 373 kts 312°
2026-05-04 05:22 34.15108 -105.45349 33971 ft 373 kts 312°
2026-05-04 05:23 34.19041 -105.49421 33966 ft 372 kts 312°
2026-05-04 05:23 34.22970 -105.53495 33975 ft 372 kts 312°
2026-05-04 05:24 34.26259 -105.56916 33987 ft 373 kts 312°
2026-05-04 05:24 34.30196 -105.61017 33972 ft 374 kts 312°
2026-05-04 05:25 34.34114 -105.65097 33971 ft 374 kts 311°
2026-05-04 05:25 34.38062 -105.69199 33977 ft 374 kts 312°
2026-05-04 05:26 34.42112 -105.73182 33973 ft 375 kts 313°
2026-05-04 05:26 34.46200 -105.77117 33973 ft 375 kts 313°
2026-05-04 05:28 34.62476 -105.93089 33966 ft 377 kts 313°
2026-05-04 05:29 34.66542 -105.97101 33971 ft 377 kts 313°
2026-05-04 05:29 34.70612 -106.01116 33991 ft 377 kts 313°
2026-05-04 05:31 34.86937 -106.17289 33965 ft 379 kts 313°
2026-05-04 05:32 34.91027 -106.21355 33958 ft 380 kts 313°
2026-05-04 05:33 34.97166 -106.27466 33985 ft 380 kts 313°
2026-05-04 05:33 35.01261 -106.31545 34006 ft 380 kts 313°
2026-05-04 05:34 35.05352 -106.35627 34035 ft 380 kts 312°
2026-05-04 05:34 35.09433 -106.39713 34050 ft 378 kts 312°
2026-05-04 05:35 35.13496 -106.43782 34076 ft 378 kts 312°
2026-05-04 05:35 35.17568 -106.47860 33966 ft 378 kts 312°
2026-05-04 05:36 35.21636 -106.51944 33930 ft 378 kts 312°
2026-05-04 05:36 35.25695 -106.56031 33928 ft 378 kts 312°
2026-05-04 05:37 35.29751 -106.60117 33915 ft 378 kts 312°
2026-05-04 05:37 35.33813 -106.64208 33973 ft 378 kts 312°
2026-05-04 05:38 35.39920 -106.70361 33907 ft 380 kts 313°
2026-05-04 05:38 35.44002 -106.74485 33911 ft 381 kts 312°
2026-05-04 05:39 35.50124 -106.80702 33918 ft 381 kts 312°
2026-05-04 05:40 35.56256 -106.86914 33966 ft 381 kts 313°
2026-05-04 05:40 35.60344 -106.91068 33942 ft 381 kts 312°
2026-05-04 05:41 35.64426 -106.95241 33944 ft 382 kts 312°
2026-05-04 05:41 35.68516 -106.99421 33954 ft 382 kts 312°
2026-05-04 05:42 35.72615 -107.03599 33951 ft 383 kts 312°
2026-05-04 05:42 35.76720 -107.07784 33964 ft 384 kts 313°
2026-05-04 05:43 35.80831 -107.11992 33956 ft 385 kts 313°
2026-05-04 05:45 35.97318 -107.28937 34001 ft 386 kts 312°
2026-05-04 05:47 36.13842 -107.46000 34307 ft 391 kts 312°
2026-05-04 05:47 36.15921 -107.48156 34675 ft 388 kts 312°
2026-05-04 05:47 36.17980 -107.50293 35120 ft 385 kts 311°
2026-05-04 05:48 36.20020 -107.52412 35526 ft 381 kts 311°
2026-05-04 05:48 36.22041 -107.54510 35873 ft 378 kts 310°
2026-05-04 05:48 36.26044 -107.58666 35960 ft 374 kts 310°
2026-05-04 05:49 36.30015 -107.62801 35965 ft 372 kts 310°
2026-05-04 05:49 36.33974 -107.66946 35967 ft 372 kts 310°
2026-05-04 05:51 36.49907 -107.83609 35953 ft 376 kts 310°
2026-05-04 05:52 36.53908 -107.87811 35959 ft 377 kts 310°
2026-05-04 05:52 36.57908 -107.92022 35977 ft 377 kts 310°
2026-05-04 05:54 36.73993 -108.08965 36023 ft 383 kts 314°
2026-05-04 05:55 36.76279 -108.10761 36025 ft 395 kts 323°
2026-05-04 05:55 36.78774 -108.12243 36061 ft 398 kts 323°
2026-05-04 05:55 36.83780 -108.15184 36047 ft 398 kts 323°
2026-05-04 05:56 36.88782 -108.18148 36028 ft 398 kts 323°
2026-05-04 05:56 36.93779 -108.21125 36009 ft 398 kts 323°
2026-05-04 05:57 36.98773 -108.24104 35994 ft 398 kts 323°
2026-05-04 05:57 37.03776 -108.27081 35979 ft 398 kts 323°
2026-05-04 05:58 37.08778 -108.30065 35972 ft 398 kts 323°
2026-05-04 05:58 37.13777 -108.33055 35970 ft 398 kts 323°
2026-05-04 05:59 37.18769 -108.36043 35967 ft 398 kts 324°
2026-05-04 05:59 37.23756 -108.39038 36004 ft 397 kts 323°
2026-05-04 06:00 37.28740 -108.42043 36072 ft 397 kts 322°
2026-05-04 06:00 37.33720 -108.45036 36059 ft 397 kts 323°
2026-05-04 06:01 37.38706 -108.48039 36059 ft 397 kts 323°
2026-05-04 06:03 37.58664 -108.60114 36025 ft 399 kts 323°
2026-05-04 06:05 37.81070 -108.73744 35965 ft 398 kts 323°
2026-05-04 06:06 37.86062 -108.76792 35981 ft 399 kts 323°
2026-05-04 06:06 37.90244 -108.79353 35939 ft 399 kts 323°
2026-05-04 06:07 37.96069 -108.82926 35923 ft 401 kts 323°
2026-05-04 06:07 38.00270 -108.85504 35915 ft 400 kts 322°
2026-05-04 06:08 38.05276 -108.88579 35930 ft 400 kts 322°
2026-05-04 06:08 38.10296 -108.91673 35919 ft 401 kts 323°
2026-05-04 06:09 38.15326 -108.94773 35893 ft 401 kts 322°
2026-05-04 06:11 38.35497 -109.07262 35897 ft 405 kts 322°
2026-05-04 06:13 38.55779 -109.19899 35855 ft 407 kts 322°
2026-05-04 06:14 38.73628 -109.31087 35823 ft 411 kts 323°
2026-05-04 06:15 38.78766 -109.34320 35802 ft 412 kts 323°
2026-05-04 06:15 38.83911 -109.37565 35820 ft 412 kts 323°
2026-05-04 06:16 38.89069 -109.40822 35797 ft 414 kts 323°
2026-05-04 06:16 38.94239 -109.44086 35791 ft 415 kts 323°
2026-05-04 06:17 38.99430 -109.47353 35786 ft 415 kts 323°
2026-05-04 06:17 39.04577 -109.50626 35790 ft 416 kts 323°
2026-05-04 06:18 39.09772 -109.53942 35804 ft 417 kts 323°
2026-05-04 06:20 39.30627 -109.67229 35814 ft 419 kts 323°
2026-05-04 06:21 39.43327 -109.76204 35827 ft 404 kts 310°
2026-05-04 06:22 39.46855 -109.81672 35793 ft 391 kts 294°
2026-05-04 06:25 39.64106 -110.25759 35830 ft 396 kts 291°
2026-05-04 06:26 39.66581 -110.32152 35823 ft 396 kts 291°
2026-05-04 06:26 39.69058 -110.38553 35115 ft 399 kts 291°
2026-05-04 06:26 39.70324 -110.41794 34187 ft 406 kts 291°
2026-05-04 06:27 39.75525 -110.55392 30476 ft 432 kts 293°
2026-05-04 06:28 39.76855 -110.58861 29954 ft 427 kts 293°
2026-05-04 06:28 39.78181 -110.62315 29246 ft 426 kts 293°
2026-05-04 06:28 39.79496 -110.65743 28694 ft 422 kts 293°
2026-05-04 06:28 39.80801 -110.69147 28065 ft 420 kts 294°
2026-05-04 06:29 39.82096 -110.72534 27450 ft 417 kts 294°
2026-05-04 06:29 39.83380 -110.75904 26831 ft 415 kts 294°
2026-05-04 06:29 39.84658 -110.79257 26220 ft 412 kts 294°
2026-05-04 06:29 39.85926 -110.82588 25622 ft 410 kts 294°
2026-05-04 06:30 39.87187 -110.85914 25015 ft 409 kts 294°
2026-05-04 06:30 39.88439 -110.89225 24429 ft 407 kts 294°
2026-05-04 06:30 39.89687 -110.92521 23862 ft 404 kts 294°
2026-05-04 06:30 39.90925 -110.95796 23266 ft 403 kts 294°
2026-05-04 06:31 39.92156 -110.99055 22700 ft 399 kts 295°
2026-05-04 06:31 39.93378 -111.02292 22193 ft 396 kts 295°
2026-05-04 06:31 39.94588 -111.05497 21706 ft 393 kts 295°
2026-05-04 06:31 39.95792 -111.08687 21211 ft 391 kts 295°
2026-05-04 06:32 39.96989 -111.11861 20730 ft 389 kts 295°
2026-05-04 06:33 40.05195 -111.33723 17291 ft 371 kts 296°
2026-05-04 06:34 40.06325 -111.36714 16975 ft 366 kts 296°
2026-05-04 06:34 40.07449 -111.39685 16648 ft 364 kts 296°
2026-05-04 06:34 40.08568 -111.42641 16303 ft 363 kts 296°
2026-05-04 06:34 40.09683 -111.45587 15969 ft 361 kts 296°
2026-05-04 06:35 40.10796 -111.48523 15650 ft 360 kts 296°
2026-05-04 06:36 40.20430 -111.67263 13513 ft 354 kts 308°
2026-05-04 06:37 40.22092 -111.69617 13171 ft 353 kts 319°
2026-05-04 06:37 40.24016 -111.71599 12841 ft 351 kts 322°
2026-05-04 06:37 40.25957 -111.73525 12508 ft 350 kts 322°
2026-05-04 06:37 40.27874 -111.75411 12186 ft 349 kts 322°
2026-05-04 06:38 40.29807 -111.77313 12015 ft 347 kts 322°
2026-05-04 06:38 40.31762 -111.79241 12027 ft 348 kts 322°
2026-05-04 06:40 40.45402 -111.92536 11996 ft 350 kts 322°
2026-05-04 06:40 40.47362 -111.94439 12002 ft 351 kts 322°
2026-05-04 06:40 40.49322 -111.96343 12006 ft 350 kts 323°
2026-05-04 06:40 40.51276 -111.98253 12022 ft 350 kts 323°
2026-05-04 06:41 40.53235 -112.00160 12026 ft 351 kts 323°
2026-05-04 06:41 40.55206 -112.02038 12022 ft 350 kts 326°
2026-05-04 06:41 40.57387 -112.03455 12029 ft 351 kts 339°
2026-05-04 06:41 40.59698 -112.04492 12028 ft 351 kts 343°
2026-05-04 06:42 40.62042 -112.05359 11818 ft 349 kts 345°
2026-05-04 06:42 40.64348 -112.06176 11653 ft 337 kts 345°
2026-05-04 06:42 40.66569 -112.06960 11528 ft 324 kts 345°
2026-05-04 06:44 40.80472 -112.10167 9714 ft 273 kts 359°
2026-05-04 06:44 40.82365 -112.10228 9180 ft 271 kts 359°
2026-05-04 06:44 40.84242 -112.10293 8656 ft 269 kts 359°
2026-05-04 06:45 40.86101 -112.10359 8139 ft 266 kts 359°
2026-05-04 06:45 40.87940 -112.10429 7635 ft 263 kts 359°
2026-05-04 06:45 40.89710 -112.10508 7474 ft 246 kts 359°
2026-05-04 06:45 40.91351 -112.10584 7453 ft 225 kts 358°
2026-05-04 06:46 40.92851 -112.10660 7500 ft 211 kts 358°
2026-05-04 06:46 40.94304 -112.10730 7463 ft 207 kts 359°
2026-05-04 06:46 40.95744 -112.10801 7452 ft 207 kts 359°
2026-05-04 06:46 40.97152 -112.10876 7468 ft 198 kts 358°
2026-05-04 06:48 40.99691 -112.02137 7507 ft 191 kts 104°
2026-05-04 06:48 40.99343 -112.00438 7507 ft 191 kts 105°
2026-05-04 06:49 40.98915 -111.98773 7486 ft 192 kts 117°
2026-05-04 06:50 40.90520 -111.96214 6334 ft 157 kts 177°
2026-05-04 06:51 40.89466 -111.96215 6165 ft 148 kts 176°
2026-05-04 06:51 40.88445 -111.96213 6012 ft 145 kts 176°
2026-05-04 06:51 40.87445 -111.96215 5749 ft 142 kts 178°
2026-05-04 06:51 40.86445 -111.96212 5474 ft 144 kts 178°
2026-05-04 06:52 40.85439 -111.96209 5303 ft 144 kts 178°
2026-05-04 06:52 40.84432 -111.96210 5148 ft 145 kts 178°
2026-05-04 06:52 40.83431 -111.96208 4981 ft 143 kts 178°
2026-05-04 06:52 40.82446 -111.96211 4779 ft 141 kts 179°
2026-05-04 06:53 40.81478 -111.96211 4580 ft 137 kts 179°
2026-05-04 06:53 40.80523 -111.96211 4406 ft 137 kts 178°
2026-05-04 06:53 40.79576 -111.96207 4244 ft 133 kts 179°
2026-05-04 06:53 40.78783 -111.96209 4234 ft 82 kts 180°
2026-05-04 06:54 40.78418 -111.96210 4231 ft 46 kts 180°
2026-05-04 06:54 40.78199 -111.96211 4232 ft 24 kts 183°
2026-05-04 06:54 40.78040 -111.96265 4236 ft 23 kts 210°
2026-05-04 06:54 40.77906 -111.96364 4248 ft 22 kts 209°
2026-05-04 06:55 40.77778 -111.96466 4249 ft 21 kts 212°
2026-05-04 06:55 40.77646 -111.96561 4248 ft 22 kts 211°
2026-05-04 06:55 40.77509 -111.96669 4248 ft 23 kts 211°
2026-05-04 06:55 40.77379 -111.96774 4250 ft 16 kts 228°
2026-05-04 06:56 40.77385 -111.96909 4249 ft 16 kts 290°
2026-05-04 06:57 40.77763 -111.97514 4247 ft 17 kts 355°
2026-05-04 06:58 40.77876 -111.97539 4249 ft 17 kts 337°
2026-05-04 06:58 40.77984 -111.97593 4248 ft 17 kts 353°
2026-05-04 06:58 40.78100 -111.97604 4248 ft 17 kts 355°
2026-05-04 06:58 40.78215 -111.97616 4234 ft 16 kts 355°
2026-05-04 06:59 40.78328 -111.97632 4234 ft 16 kts 353°
2026-05-04 06:59 40.78440 -111.97645 4234 ft 16 kts 355°
2026-05-04 06:59 40.78550 -111.97655 4235 ft 15 kts 355°
2026-05-04 06:59 40.78655 -111.97667 4235 ft 15 kts 355°
2026-05-04 07:01 40.78667 -111.97953 4232 ft 0 kts 174°